CHINASAT 26 (ZX 26)

Last updated on Sat Jun 29 2024 00:02:41 GMT+0000 (Coordinated Universal Time)

1 55686U 23023A 24179.41361735 -.00000351 00000+0 00000+0 0 9991 2 55686 0.0717 79.7638 0003781 15.8845 94.3326 1.00264467 5010

Satellite not in orbit

CHINASAT 26 (ZX 26)